CW1767 Weather Reports


Display with metric or nautical units.
time (UTC)temp
F
wind
direction
speed
MPH
gust
MPH
rain 1hr
in
rain 24hr
in
rain mn
in
humidity
%
barometer
mb
20260504050023 44 123 0.0 0.0 0.00 0.00 0.00 77 1016.5
20260504044530 44 123 0.0 0.0 0.00 0.00 0.00 76 1016.4
20260504043026 44 123 0.0 0.0 0.00 0.00 0.00 76 1016.4
20260504041522 44 123 0.0 0.0 0.00 0.00 0.00 76 1016.4
20260504040017 43 123 0.0 0.0 0.00 0.00 0.00 76 1016.1
20260504034517 43 123 0.0 0.0 0.00 0.00 0.00 76 1016.0
20260504033015 43 123 0.0 0.0 0.00 0.00 0.00 75 1015.7
20260504031513 44 123 0.0 0.0 0.00 0.00 0.00 75 1015.8
20260504030030 44 123 0.0 0.0 0.00 0.00 0.00 73 1015.6
20260504024510 45 123 0.0 0.0 0.00 0.00 0.00 72 1015.6
20260504023008 45 123 0.0 0.0 0.00 0.00 0.00 71 1015.5
20260504021507 46 123 0.0 0.0 0.00 0.00 0.00 69 1015.6
20260504020007 46 123 0.0 0.0 0.00 0.00 0.00 66 1015.5
20260504014519 47 123 0.0 0.0 0.00 0.00 0.00 65 1015.4
20260504013006 48 123 0.0 0.0 0.00 0.00 0.00 63 1015.3
20260504011505 49 123 0.0 0.0 0.00 0.00 0.00 60 1015.2
20260504010006 50 123 0.0 0.0 0.00 0.00 0.00 59 1015.0
20260504004510 51 123 0.0 0.0 0.00 0.00 0.00 56 1015.0
20260504003014 52 123 0.0 0.0 0.00 0.00 0.00 53 1014.8
20260504001505 53 123 0.0 0.0 0.00 0.00 0.00 51 1014.4
20260504000004 55 123 0.0 0.0 0.00 0.00 0.00 46 1014.4
20260503234511 56 123 0.0 0.0 0.00 0.00 0.00 43 1014.3
20260503233004 58 123 0.0 0.0 0.00 0.00 0.00 41 1014.3
20260503231503 59 123 0.0 1.0 0.00 0.00 0.00 39 1014.4
20260503230002 59 124 0.0 1.0 0.00 0.00 0.00 39 1014.3
20260503224502 59 124 0.0 2.0 0.00 0.00 0.00 37 1014.3
20260503223002 59 138 0.0 6.0 0.00 0.00 0.00 38 1014.2
20260503221503 59 117 1.0 4.0 0.00 0.00 0.00 36 1014.3
20260503220000 59 117 1.0 8.0 0.00 0.00 0.00 36 1014.4
20260503214601 59 126 2.0 7.0 0.00 0.00 0.00 35 1014.1
20260503213109 59 123 1.0 6.0 0.00 0.00 0.00 36 1014.1
20260503211559 59 113 3.0 8.0 0.00 0.00 0.00 36 1014.1
20260503210111 59 111 2.0 6.0 0.00 0.00 0.00 37 1014.1
20260503204608 59 122 1.0 3.0 0.00 0.00 0.00 36 1013.9
20260503203104 58 142 2.0 8.0 0.00 0.00 0.00 36 1014.2
20260503201604 58 106 2.0 9.0 0.00 0.00 0.00 36 1014.4
20260503200101 59 143 1.0 7.0 0.00 0.00 0.00 36 1014.4
20260503194556 59 126 4.0 8.0 0.00 0.00 0.00 35 1014.7
20260503193100 59 109 2.0 8.0 0.00 0.00 0.00 37 1014.6
20260503191617 59 136 3.0 8.0 0.00 0.00 0.00 35 1014.8
20260503190053 58 101 2.0 6.0 0.00 0.00 0.00 35 1014.8
20260503184559 58 119 2.0 8.0 0.00 0.00 0.00 35 1014.9
20260503183110 57 131 3.0 8.0 0.00 0.00 0.00 35 1015.2
20260503181549 57 143 3.0 8.0 0.00 0.00 0.00 36 1015.5
20260503180049 57 118 2.0 8.0 0.00 0.00 0.00 37 1015.3
20260503174547 57 121 1.0 8.0 0.00 0.00 0.00 38 1015.2
20260503173111 57 174 3.0 7.0 0.00 0.00 0.00 38 1015.4
20260503171548 56 110 4.0 9.0 0.00 0.00 0.00 39 1015.3
20260503100105 45 120 0.0 2.0 0.00 0.00 0.00 70 1013.4
20260503081546 45 126 0.0 2.0 0.00 0.00 0.00 71 1012.3
20260503071539 47 124 0.0 1.0 0.00 0.00 0.00 65 1011.8
20260503070134 47 124 0.0 1.0 0.00 0.00 0.00 65 1011.8